Probability
10 8 5 4 4 3 3 3 4 5 6 6 6 4 2 4 6 6 6 6 7 8 6 3 5 8 8 7 9 11 13 13 12 12 14 13 10 10 12 9 8 11 13
11 8 5 3 3 3 3 3 3 4 4 5 4 3 3 4 6 6 6 6 6 7 6 4 4 6 8 8 7 8 11 11 9 9 13 13 11 11 13 12 12 15 16
10 8 4 3 3 2 3 3 3 3 3 3 2 2 4 5 6 6 6 5 5 6 7 6 6 8 9 10 9 8 7 7 6 8 11 13 14 16 17 16 14 14 16
10 8 6 3 2 1 1 2 3 3 3 3 2 2 3 5 6 5 4 4 4 5 7 9 9 11 11 11 10 9 7 5 6 7 10 12 16 21 22 19 14 10 10
11 9 7 5 2 0 0 1 1 3 3 3 3 3 4 4 4 4 3 3 3 3 5 8 9 11 10 9 9 8 7 7 8 8 8 10 15 20 22 20 15 11 8
12 10 8 6 4 2 1 0 1 2 2 2 2 3 4 5 4 3 3 3 1 1 2 3 6 7 8 8 7 6 5 6 8 8 8 9 12 14 18 19 17 14 10
11 10 8 7 5 4 2 1 1 1 1 1 1 1 3 4 4 3 3 3 1 0 0 1 2 3 5 6 6 5 4 3 4 6 9 11 12 12 15 18 18 16 15
9 8 7 5 4 4 3 2 1 0 0 0 0 0 1 2 2 2 2 2 1 0 0 0 0 1 2 3 4 4 3 2 1 3 7 12 13 12 13 16 18 18 17
7 7 5 3 2 2 1 1 1 0 0 0 0 0 0 0 1 1 1 1 1 0 0 0 0 0 0 1 1 2 3 2 1 1 5 10 12 11 11 13 15 15 15
7 5 4 2 1 1 1 0 0 0 0 0 0 0 0 0 0 0 0 0 0 0 0 0 0 0 0 0 0 1 2 1 0 0 3 7 10 10 10 12 13 13 13
6 4 3 2 1 0 0 0 0 0 0 0 0 0 0 0 0 0 0 0 0 0 0 0 0 0 0 0 0 0 0 0 0 0 1 4 7 8 9 10 11 13 14
5 4 3 3 1 0 0 0 0 0 0 0 0 0 0 0 0 0 0 0 0 0 0 0 0 0 0 0 0 0 0 0 0 0 0 1 2 4 5 7 10 12 14
5 4 3 3 2 1 0 0 0 0 0 0 0 1 1 0 0 0 0 0 0 0 0 0 0 0 0 0 0 0 0 0 0 0 0 0 0 1 1 4 7 9 10
4 3 2 3 2 1 0 0 0 0 0 0 1 2 2 1 0 0 0 0 0 0 0 0 0 0 0 0 0 0 0 0 0 0 0 0 0 0 0 1 3 4 5
4 2 1 2 2 1 0 0 0 0 0 0 1 3 3 1 0 0 0 0 0 0 0 0 0 0 0 0 0 0 0 0 0 0 0 0 0 0 0 0 1 1 1
3 1 0 1 1 0 0 0 0 0 0 0 1 2 3 2 0 0 0 0 0 0 0 0 0 0 0 0 0 0 0 0 0 0 0 0 0 0 0 0 0 0 0
1 0 0 0 0 0 0 0 0 0 0 0 1 1 2 1 0 0 0 0 0 0 0 0 0 0 0 0 0 0 0 0 0 0 0 0 0 0 0 0 0 0 0
0 0 0 0 0 0 0 0 0 0 0 0 0 0 0 0 0 0 0 0 0 0 0 0 0 0 0 0 0 0 0 0 0 0 0 0 0 0 0 0 0 0 0
0 0 0 0 0 0 0 0 0 0 0 0 0 0 0 0 0 0 0 0 0 0 0 0 0 0 0 0 0 0 0 0 0 0 0 0 0 0 0 0 0 0 0
0 0 0 0 0 0 0 0 0 0 0 0 0 0 0 0 0 0 0 0 0 0 0 0 0 0 0 0 0 0 0 0 0 0 0 0 0 0 0 0 0 0 0
0 0 0 0 0 0 0 0 0 0 0 0 0 0 0 0 0 0 0 0 0 0 0 0 0 0 0 0 0 0 0 0 0 0 0 0 0 0 0 0 0 0 0
0 0 0 0 0 0 0 0 0 0 0 0 0 0 0 0 0 0 0 0 0 0 0 0 0 0 0 0 0 0 0 0 0 0 0 0 0 0 0 0 0 0 0
0 0 0 0 0 0 0 0 0 0 0 0 0 0 0 0 0 0 0 0 0 0 0 0 0 0 0 0 0 0 0 0 0 0 0 0 0 0 0 0 0 0 0
0 0 0 0 0 0 0 0 0 0 0 0 0 0 0 0 0 0 0 0 0 0 0 0 0 0 0 0 0 0 0 0 0 0 0 0 0 0 0 0 0 0 0
0 0 0 0 0 0 0 0 0 0 0 0 0 0 0 0 0 0 0 0 0 0 0 0 0 0 0 0 0 0 0 0 0 0 0 0 0 0 0 0 0 0 0
0 0 0 0 0 0 0 0 0 0 0 0 0 0 0 0 0 0 0 0 0 0 0 0 0 0 0 0 0 0 0 0 0 0 0 0 0 0 0 0 0 0 0
Wind_Speed
1 1 0 0 0 1 1 1 1 1 1 2 2 2 3 3 3 3 3 6 6 6 6 7 7 8 8 9 9 9 9 9 10 10 11 11 12 13 14 15 15 15 16
2 1 0 0 0 1 1 1 2 2 2 2 2 3 3 3 3 3 3 4 6 5 6 6 7 7 8 8 9 9 9 9 9 10 10 11 11 12 13 14 15 15 15
2 1 1 1 1 1 1 1 1 1 1 2 2 3 2 3 3 3 3 3 3 5 6 6 6 7 8 8 9 9 9 9 9 9 10 11 11 11 12 13 13 14 14
2 2 1 1 1 0 1 1 1 1 1 1 2 3 2 3 4 4 3 3 3 3 5 6 7 7 8 8 9 9 9 9 9 9 10 10 10 11 11 12 12 14 15
2 2 1 1 1 0 1 1 1 1 2 2 3 3 3 3 3 4 4 4 4 3 3 5 7 7 8 8 8 8 8 9 9 9 9 9 9 9 10 11 11 12 14
2 2 1 1 1 1 1 1 1 1 2 2 3 3 3 3 3 3 4 3 3 4 4 3 3 5 7 8 8 8 9 9 9 9 10 9 9 8 9 10 11 12 13
2 1 1 1 1 1 1 1 1 1 1 1 1 3 3 3 3 3 2 2 3 3 3 3 2 3 3 6 6 7 8 10 10 10 10 10 9 9 9 10 11 12 13
2 2 2 2 1 1 1 1 1 1 1 0 1 1 3 3 2 3 2 2 3 2 3 3 3 3 3 2 4 7 7 8 10 10 10 9 9 9 10 11 11 12 12
2 2 2 2 2 2 2 3 2 2 2 1 1 2 1 3 3 3 3 3 3 2 3 3 3 4 4 3 4 6 8 8 9 10 10 9 9 9 10 10 11 11 11
1 2 2 2 3 2 3 4 3 3 3 2 1 2 2 2 2 3 3 3 3 3 4 3 4 4 4 3 5 7 8 8 9 10 10 9 10 10 11 11 12 12 12
1 2 2 3 3 3 3 4 3 3 3 3 3 2 2 2 3 3 4 4 3 3 4 4 4 4 4 4 4 6 8 8 9 9 9 9 10 11 11 12 12 12 12
2 2 3 3 3 3 3 4 4 4 3 4 4 3 3 3 3 3 4 4 4 4 4 4 4 4 4 4 5 7 8 8 8 8 9 9 10 11 12 12 12 13 13
2 3 3 3 3 3 3 3 3 4 4 4 4 4 4 4 3 3 4 4 4 3 3 3 4 4 3 3 4 7 7 7 7 8 8 9 10 11 12 12 12 13 13
3 3 3 3 3 3 3 3 3 4 3 4 4 4 3 3 3 3 4 3 3 3 3 4 3 3 3 3 5 7 5 7 7 7 8 9 9 9 10 11 12 11 11
2 3 3 2 3 2 2 2 2 3 3 3 3 4 3 3 3 4 4 4 4 4 4 4 3 3 3 3 5 4 5 7 8 7 8 8 8 8 9 9 10 10 10
2 2 2 2 2 2 2 2 2 3 2 3 3 3 3 3 3 3 4 4 4 4 4 3 4 4 3 4 5 4 5 8 8 9 8 8 8 8 9 9 9 10 10
2 2 2 2 2 2 2 2 3 3 2 2 3 3 4 4 3 3 3 3 4 4 5 4 3 3 3 4 4 4 4 5 5 9 9 9 9 9 9 9 9 9 10
2 2 2 2 3 3 3 2 3 3 2 3 4 4 4 3 4 3 2 3 3 4 4 5 4 3 4 4 4 4 4 4 4 7 9 9 9 9 10 10 10 9 9
2 2 2 2 3 3 3 3 3 3 3 3 3 4 4 4 4 3 3 3 3 3 3 4 4 3 3 3 3 4 5 4 4 5 6 8 8 9 10 10 10 10 10
2 3 3 3 3 3 3 3 3 3 3 3 4 4 4 4 4 4 4 4 3 3 3 3 3 3 3 3 2 3 4 3 4 4 4 5 6 7 8 9 10 10 10
3 3 3 3 3 3 3 3 2 3 3 4 4 4 4 4 4 4 4 4 3 3 3 3 3 3 3 3 3 3 4 4 4 3 3 3 3 4 5 7 8 9 10
3 3 2 3 3 3 4 3 3 3 3 3 4 5 5 4 5 6 6 6 5 4 4 4 4 5 6 5 4 3 3 3 4 2 2 4 3 4 5 5 6 8 9
3 3 3 3 3 4 4 4 4 2 2 3 4 4 4 4 5 5 6 6 5 5 6 5 5 6 6 5 4 5 4 4 5 3 2 4 4 5 5 5 8 9 9
2 2 3 3 3 4 4 4 4 2 2 3 3 4 4 5 5 5 5 5 5 5 5 4 5 7 6 5 5 5 5 5 5 4 3 4 4 4 5 4 7 9 10
2 2 2 2 3 4 5 5 4 2 2 4 4 3 4 4 6 6 3 4 5 5 5 5 6 7 7 7 5 3 3 3 4 4 3 3 3 4 4 4 4 6 8
2 2 2 2 2 3 5 5 4 1 3 4 4 4 4 5 6 5 3 3 5 6 6 6 5 5 4 4 4 5 4 4 3 3 3 3 3 2 3 3 2 2 3
Wind_Direction
182 206 268 294 305 305 284 274 261 246 248 257 258 257 259 256 259 262 273 277 277 272 263 253 247 247 245 241 239 239 238 233 232 233 230 229 231 231 230 227 224 219 216
168 171 208 241 279 273 269 263 263 254 251 249 261 266 264 262 257 257 263 277 276 272 268 261 258 257 253 249 242 241 239 237 237 236 233 231 230 229 228 229 227 221 217
157 158 198 241 255 261 265 264 274 270 268 265 266 269 266 265 262 257 258 261 273 272 269 265 261 257 253 251 246 243 241 239 239 240 238 235 232 229 228 228 229 223 220
163 159 196 250 258 246 252 251 265 280 284 285 279 275 271 264 261 261 253 252 258 268 274 271 267 263 259 253 247 244 245 245 243 241 240 239 237 231 227 227 228 223 220
173 168 196 233 226 213 250 266 286 254 267 281 274 269 270 264 261 264 260 254 253 256 259 271 270 268 263 258 250 248 249 249 247 243 241 238 238 233 228 226 226 224 219
183 177 196 221 210 210 256 262 275 271 255 266 282 288 281 273 265 261 261 262 259 258 256 261 270 269 263 261 257 256 255 254 253 250 245 240 238 236 233 230 227 227 220
186 173 200 225 222 230 245 249 245 275 288 292 309 316 307 288 275 266 266 270 273 268 265 262 262 259 262 262 262 259 261 260 258 258 252 243 239 239 237 235 230 229 225
200 199 189 212 226 236 259 256 235 247 276 243 165 338 321 316 295 276 276 265 272 274 274 270 262 257 256 254 261 265 266 269 263 260 258 248 239 238 239 237 233 231 231
218 206 201 210 226 223 238 242 227 213 241 253 194 179 205 260 295 293 267 265 269 268 271 275 265 260 253 246 253 263 266 270 268 264 257 251 246 243 243 239 233 230 229
253 225 214 213 226 231 236 243 227 216 213 238 237 216 216 208 242 293 294 272 269 262 264 269 270 264 257 248 246 253 260 263 264 265 263 257 252 246 243 240 234 232 230
268 255 240 229 233 236 238 243 239 229 216 217 217 215 225 223 219 234 281 295 287 263 254 254 257 259 257 249 247 252 257 257 258 258 259 260 259 252 246 238 232 231 230
265 252 254 247 245 246 248 248 245 238 232 228 228 217 211 215 218 216 248 272 279 276 265 254 251 252 251 247 251 263 264 262 259 258 258 259 261 257 250 243 239 233 231
263 256 252 248 252 251 253 248 245 247 236 232 233 233 227 230 221 213 234 256 264 276 276 261 248 249 251 250 258 269 269 269 263 261 260 258 260 259 251 244 242 238 232
259 258 256 252 254 255 259 256 257 254 245 244 248 244 245 244 227 220 224 233 263 272 266 267 265 245 248 252 258 262 263 264 263 262 260 259 259 258 255 248 243 237 232
259 258 259 260 265 265 265 266 268 270 262 256 256 252 249 251 239 233 230 225 231 260 271 264 259 255 252 250 255 255 256 261 260 261 261 261 258 254 250 247 242 238 231
271 276 276 279 283 281 277 275 283 279 273 273 261 262 264 260 255 244 235 230 226 234 256 255 255 271 273 271 263 257 256 261 259 260 260 259 255 250 247 243 238 237 231
272 264 268 274 281 285 284 285 290 289 282 291 291 281 282 279 277 266 246 236 229 222 248 269 260 272 268 273 280 273 264 257 257 258 258 255 253 247 244 241 239 236 228
278 267 266 271 280 284 283 281 292 292 282 288 294 295 293 293 291 274 256 252 244 229 233 264 273 270 264 268 270 273 275 266 260 262 258 253 250 245 238 236 236 234 227
288 286 280 278 285 288 289 284 281 280 281 282 286 288 289 290 291 287 270 266 259 248 233 247 269 268 265 268 275 279 281 275 268 265 261 253 250 248 240 235 233 230 227
289 294 290 283 283 288 291 292 288 290 295 294 288 283 284 277 278 287 284 274 266 264 258 257 269 279 272 273 264 278 290 284 279 280 274 267 256 251 246 239 233 228 224
295 287 293 301 301 295 292 297 292 299 301 303 303 297 289 288 286 283 280 274 266 261 265 263 266 273 274 275 269 267 276 288 281 261 271 271 263 256 252 244 235 227 221
309 313 310 309 307 302 308 316 318 304 301 302 307 311 304 300 304 298 289 278 258 248 253 257 260 262 266 265 266 263 268 281 279 242 255 279 267 262 257 246 239 229 223
314 317 310 306 303 306 316 324 329 316 305 303 304 307 313 318 318 312 307 300 289 269 245 245 260 261 261 260 263 263 259 261 263 261 263 278 271 268 264 250 235 232 229
304 301 307 315 312 317 331 335 338 332 311 303 297 299 308 316 324 324 319 318 309 298 275 255 255 263 263 265 255 259 262 271 269 253 231 260 269 270 272 260 240 234 230
319 316 313 324 328 329 342 344 354 335 325 325 328 331 332 333 337 344 340 325 321 319 306 289 278 278 277 273 264 262 257 259 274 267 219 236 256 268 271 263 253 238 233
315 333 350 353 356 346 347 354 5 3 347 342 343 347 354 353 349 0 360 342 329 324 328 327 323 319 309 292 260 232 234 245 261 265 224 222 246 257 272 263 263 259 241